Kekaha, HI

5:39 PM HST on August 31, 2016 (GMT -1000)
Barking Sands PMRF

Weather History for PHBK - March, 2012

Change the Weather History Date:

Saturday, March 10, 2012

  Actual Average Record
Temperature  
Mean Temperature 75 °F -  
Max Temperature 82 °F 82 °F 87 °F (1977)
Min Temperature 68 °F 62 °F 58 °F (1954)
Cooling Degree Days 10    
Growing Degree Days 25 (Base 50)    
Moisture  
Dew Point 62 °F    
Average Humidity 65    
Maximum Humidity 87    
Minimum Humidity 42    
Precipitation  
Precipitation 0.00 in - - ()
Sea Level Pressure  
Sea Level Pressure 30.07 in    
Wind  
Wind Speed 7 mph (East)    
Max Wind Speed 13 mph    
Max Gust Speed 25 mph    
Visibility 10 miles    
Events      
Averages and records for this station are not official NWS values.
T = Trace of Precipitation, MM = Missing Value Source: NWS Daily Summary

Daily Weather History Graph

Daily Weather History Graph

Search for Another Location

Airport or City:

Trip Planner

Search our weather history database for the weather conditions in past years. The results will help you decide how hot, cold, wet, or windy it might be!

Date:

Astronomy

Mar. 10, 2012 Rise Set
Actual Time 6:51 AM HST 6:46 PM HST
Civil Twilight 6:29 AM HST 7:09 PM HST
Nautical Twilight 6:03 AM HST 7:35 PM HST
Astronomical Twilight 5:37 AM HST 8:01 PM HST
Moon 9:39 PM HST (3/10) 8:23 AM HST (3/10)
Length of Visible Light 12h 39m
Length of Day
11h 55m
Waning Gibbous, 91% of the Moon is Illuminated
Mar 10
Waning Gibbous
Mar 14
Last Quarter
Mar 22
New
Mar 30
First Quarter
Apr 6
Full

Hourly Weather History & Observations

Time (HST) Temp. Heat Index Dew Point Humidity Pressure Visibility Wind Dir Wind Speed Gust Speed Precip Events Conditions
12:56 AM 71.1 °F - 66.0 °F 84% 30.07 in 10.0 mi NNE 12.7 mph - N/A   Overcast
1:56 AM 72.0 °F - 64.9 °F 78% 30.05 in 10.0 mi NNW 3.5 mph - N/A   Overcast
2:56 AM 72.0 °F - 66.9 °F 84% 30.04 in 10.0 mi NNE 10.4 mph - N/A   Overcast
3:56 AM 70.0 °F - 64.9 °F 84% 30.01 in 10.0 mi Calm Calm - N/A   Clear
4:24 AM 69.8 °F - 64.4 °F 83% 29.99 in 6.2 mi Calm Calm - N/A   Scattered Clouds
4:56 AM 68.0 °F - 64.0 °F 87% 30.00 in 10.0 mi Calm Calm - N/A   Clear
5:56 AM 73.9 °F - 63.0 °F 68% 29.99 in 10.0 mi ESE 12.7 mph 20.7 mph N/A   Clear
6:56 AM 75.0 °F - 62.1 °F 64% 30.03 in 10.0 mi ESE 10.4 mph 19.6 mph N/A   Scattered Clouds
7:56 AM 75.9 °F - 62.1 °F 62% 30.06 in 10.0 mi Variable 4.6 mph - N/A   Clear
8:56 AM 79.0 °F - 59.0 °F 50% 30.08 in 10.0 mi ESE 6.9 mph - N/A   Clear
9:56 AM 80.1 °F 80.4 °F 57.0 °F 45% 30.10 in 10.0 mi SE 10.4 mph 21.9 mph N/A   Clear
10:56 AM 82.9 °F 82.8 °F 59.0 °F 44% 30.11 in 10.0 mi Variable 3.5 mph - N/A   Partly Cloudy
11:56 AM 82.9 °F 82.6 °F 57.9 °F 42% 30.09 in 10.0 mi ESE 8.1 mph 19.6 mph N/A   Partly Cloudy
12:56 PM 82.9 °F 83.7 °F 62.1 °F 49% 30.08 in 10.0 mi ESE 11.5 mph 24.2 mph N/A   Scattered Clouds
1:56 PM 81.0 °F 81.1 °F 57.9 °F 45% 30.08 in 10.0 mi SE 12.7 mph 21.9 mph N/A   Scattered Clouds
2:56 PM 80.1 °F 81.1 °F 61.0 °F 52% 30.08 in 10.0 mi West 6.9 mph - N/A   Mostly Cloudy
3:56 PM 78.1 °F - 61.0 °F 56% 30.06 in 10.0 mi SE 12.7 mph 25.3 mph N/A   Overcast
4:56 PM 78.1 °F - 63.0 °F 60% 30.05 in 10.0 mi NNW 9.2 mph - N/A   Mostly Cloudy
5:56 PM 78.1 °F - 63.0 °F 60% 30.07 in 10.0 mi North 5.8 mph - N/A   Mostly Cloudy
6:56 PM 75.9 °F - 63.0 °F 64% 30.10 in 10.0 mi Calm Calm - N/A   Overcast
7:56 PM 73.9 °F - 61.0 °F 64% 30.12 in 10.0 mi Calm Calm - N/A   Mostly Cloudy
8:56 PM 75.0 °F - 61.0 °F 62% 30.14 in 10.0 mi North 3.5 mph - N/A   Clear
9:56 PM 72.0 °F - 62.1 °F 71% 30.15 in 10.0 mi SE 3.5 mph - N/A   Clear
10:56 PM 69.1 °F - 63.0 °F 81% 30.14 in 10.0 mi Calm Calm - N/A   Partly Cloudy
11:56 PM 70.0 °F - 63.0 °F 78% 30.13 in 10.0 mi Calm Calm - N/A   Mostly Cloudy